�N����,����,�~����,�C��,���x,�C��,����,���ϕ���,�ő�u�ԕ���,�ő厞����,���˗�,�I�_���x,�n�����x,�ő啗���N��,DTYPE
"17/12/05","00:10",0.0,4.6,98.6,1005.0,304.0,1.3,2.0,323.0,0.00,4.4,8.1,"00:03:04",1
"17/12/05","00:20",0.0,4.5,98.3,1004.8,287.6,0.8,1.4,304.7,0.00,4.3,8.1,"00:11:52",1
"17/12/05","00:30",0.0,4.6,98.6,1004.8,291.0,0.3,1.0,305.9,0.00,4.4,8.3,"00:26:40",1
"17/12/05","00:40",0.0,4.5,98.4,1004.5,311.7,1.5,2.4,327.2,0.00,4.3,8.3,"00:36:56",1
"17/12/05","00:50",0.0,4.5,98.7,1004.3,313.5,1.5,1.9,321.6,0.00,4.4,8.3,"00:42:48",1
"17/12/05","01:00",0.0,4.7,98.7,1004.8,307.6,1.2,1.7,322.3,0.00,4.6,8.1,"00:53:28",1
"17/12/05","01:10",0.0,4.8,98.9,1004.5,318.3,1.3,1.9,327.4,0.00,4.7,8.3,"01:08:32",1
"17/12/05","01:20",0.0,5.0,98.7,1004.8,286.7,1.1,1.9,334.8,0.00,4.9,8.2,"01:10:08",1
"17/12/05","01:30",0.0,5.1,98.9,1004.8,307.9,1.2,2.0,331.8,0.00,5.0,8.2,"01:29:52",1
"17/12/05","01:40",0.0,5.3,98.8,1004.5,310.8,1.3,2.2,339.7,0.00,5.2,7.9,"01:30:24",1
"17/12/05","01:50",0.0,5.3,98.5,1005.0,330.0,1.5,2.2,333.1,0.00,5.1,8.2,"01:45:36",1
"17/12/05","02:00",0.0,5.2,98.4,1004.8,312.8,1.2,2.2,327.8,0.00,5.0,8.1,"01:55:28",1
"17/12/05","02:10",0.0,4.8,97.7,1004.5,311.5,1.2,2.4,315.2,0.00,4.5,8.1,"02:09:36",1
"17/12/05","02:20",0.0,4.1,98.7,1004.3,306.4,1.3,2.2,308.3,0.00,4.0,8.0,"02:10:16",1
"17/12/05","02:30",0.0,3.9,98.9,1004.3,251.9,0.7,1.4,209.1,0.00,3.8,8.1,"02:29:12",1
"17/12/05","02:40",0.0,4.4,98.7,1004.1,283.9,1.2,3.1,354.6,0.00,4.3,8.1,"02:38:48",1
"17/12/05","02:50",0.0,4.0,98.5,1004.5,333.9,2.0,3.1,348.1,0.00,3.8,8.2,"02:42:32",1
"17/12/05","03:00",0.0,4.1,98.8,1004.3,329.4,1.6,2.6,340.1,0.00,4.0,7.7,"02:54:32",1
"17/12/05","03:10",0.0,4.6,98.7,1004.3,330.0,2.2,4.4,339.3,0.00,4.5,7.9,"03:06:48",1
"17/12/05","03:20",0.0,4.5,98.3,1004.5,333.4,2.0,3.2,328.3,0.00,4.3,8.0,"03:12:48",1
"17/12/05","03:30",0.0,4.5,98.2,1004.8,335.3,1.6,3.1,334.0,0.00,4.3,7.8,"03:28:00",1
"17/12/05","03:40",0.0,4.4,98.0,1004.3,310.9,1.3,2.1,323.6,0.00,4.2,7.9,"03:30:48",1
"17/12/05","03:50",0.0,4.2,97.4,1004.3,329.7,1.5,2.1,323.4,0.00,3.9,7.8,"03:49:52",1
"17/12/05","04:00",0.0,3.7,98.3,1004.3,335.0,1.0,1.7,324.1,0.00,3.5,7.8,"03:50:32",1
"17/12/05","04:10",0.0,3.8,98.3,1004.1,333.7,1.1,1.7,337.9,0.00,3.6,7.7,"04:08:24",1
"17/12/05","04:20",0.0,3.1,97.1,1004.3,313.9,1.8,3.5,323.7,0.00,2.7,7.7,"04:17:04",1
"17/12/05","04:30",0.0,2.5,99.2,1004.1,298.8,2.1,3.6,314.3,0.00,2.4,7.5,"04:23:30",1
"17/12/05","04:40",0.0,2.4,98.3,1003.8,307.4,2.3,4.1,320.2,0.00,2.2,7.6,"04:30:08",1
"17/12/05","04:50",0.0,2.5,98.9,1004.3,309.4,2.1,3.3,321.9,0.00,2.4,7.3,"04:46:00",1
"17/12/05","05:00",0.0,2.4,98.9,1003.8,313.4,2.5,3.4,315.3,0.00,2.3,7.6,"04:52:16",1
"17/12/05","05:10",0.0,2.5,99.1,1003.8,314.4,2.5,3.6,312.7,0.00,2.4,7.5,"05:09:24",1
"17/12/05","05:20",0.0,3.0,99.6,1004.1,308.5,1.6,2.7,329.9,0.00,3.0,7.5,"05:14:16",1
"17/12/05","05:30",0.0,3.7,99.0,1004.1,318.1,2.3,3.4,320.4,0.00,3.6,7.4,"05:26:20",1
"17/12/05","05:40",0.0,3.7,98.6,1003.4,315.6,2.1,3.5,332.9,0.00,3.5,7.2,"05:33:44",1
"17/12/05","05:50",0.0,3.8,98.7,1004.3,315.5,2.7,3.9,323.0,0.00,3.7,7.4,"05:48:36",1
"17/12/05","06:00",0.0,3.7,98.3,1003.8,299.2,2.2,3.7,335.0,0.00,3.5,7.3,"05:53:06",1
"17/12/05","06:10",0.0,3.7,98.5,1004.1,281.6,1.5,2.4,277.7,0.00,3.5,7.3,"06:05:20",1
"17/12/05","06:20",0.0,3.6,98.3,1004.3,266.9,1.6,2.2,262.4,0.00,3.4,7.4,"06:16:32",1
"17/12/05","06:30",0.0,3.5,98.1,1004.3,297.8,1.6,2.6,316.1,0.00,3.3,7.2,"06:23:04",1
"17/12/05","06:40",0.0,3.1,97.6,1004.3,296.3,1.5,3.2,317.4,0.00,2.8,7.3,"06:39:28",1
"17/12/05","06:50",0.0,2.6,98.6,1004.3,285.7,1.5,2.1,314.2,0.00,2.4,7.2,"06:40:16",1
"17/12/05","07:00",0.0,2.8,99.2,1004.1,292.0,1.6,3.3,312.8,0.00,2.7,7.2,"06:56:50",1
"17/12/05","07:10",0.0,3.0,98.8,1004.5,288.6,1.5,4.4,319.0,0.00,2.9,7.2,"07:09:12",1
"17/12/05","07:20",0.0,3.3,98.6,1004.5,310.0,2.5,4.0,323.0,0.00,3.1,6.9,"07:14:40",1
"17/12/05","07:30",0.0,3.6,98.3,1004.5,312.1,2.2,4.1,321.7,0.00,3.4,7.1,"07:21:12",1
"17/12/05","07:40",0.0,4.2,96.4,1005.0,295.6,2.0,3.7,303.7,0.00,3.7,7.0,"07:38:32",1
"17/12/05","07:50",0.0,4.5,92.8,1004.8,307.9,2.7,6.2,345.2,0.01,3.5,7.2,"07:49:12",1
"17/12/05","08:00",0.0,4.6,91.9,1005.2,308.1,3.0,5.5,326.0,0.02,3.4,7.1,"07:51:04",1
"17/12/05","08:10",0.0,4.7,91.8,1005.0,288.8,2.1,5.1,315.8,0.03,3.5,7.2,"08:00:48",1
"17/12/05","08:20",0.0,5.1,90.3,1005.5,282.7,2.2,4.3,305.8,0.05,3.7,7.2,"08:13:36",1
"17/12/05","08:30",0.0,5.4,88.2,1006.0,288.5,2.3,3.4,284.0,0.07,3.6,7.1,"08:28:26",1
"17/12/05","08:40",0.0,5.5,86.6,1006.2,268.7,2.6,4.9,307.8,0.08,3.5,7.4,"08:30:40",1
"17/12/05","08:50",0.0,5.8,85.3,1006.2,283.6,2.2,2.6,279.0,0.11,3.6,7.1,"08:49:44",1
"17/12/05","09:00",0.0,6.1,84.9,1006.2,274.2,2.0,3.2,238.9,0.14,3.8,7.3,"08:56:34",1
"17/12/05","09:10",0.0,6.2,83.3,1006.7,296.3,2.0,2.8,259.8,0.17,3.6,7.5,"09:01:08",1
"17/12/05","09:20",0.0,6.1,81.9,1007.1,295.5,1.6,1.7,305.4,0.16,3.3,7.6,"09:11:24",1
"17/12/05","09:30",0.0,6.0,80.5,1007.1,287.5,3.1,6.0,335.5,0.14,2.9,7.4,"09:28:58",1
"17/12/05","09:40",0.0,6.2,81.6,1007.1,287.3,2.3,3.7,302.4,0.11,3.3,7.6,"09:36:32",1
"17/12/05","09:50",0.0,6.2,79.8,1007.1,277.3,2.7,5.4,333.4,0.15,3.0,7.7,"09:49:32",1
"17/12/05","10:00",0.0,6.6,77.2,1006.9,278.8,2.7,4.8,325.6,0.20,2.9,7.9,"09:56:56",1
"17/12/05","10:10",0.0,7.1,73.5,1006.7,285.0,3.1,7.3,314.0,0.26,2.7,7.9,"10:03:12",1
"17/12/05","10:20",0.0,7.2,73.2,1006.9,274.9,2.8,4.9,310.7,0.21,2.8,8.1,"10:16:24",1
"17/12/05","10:30",0.0,7.2,71.0,1006.9,281.6,3.0,5.7,302.9,0.26,2.3,8.2,"10:27:52",1
"17/12/05","10:40",0.0,7.3,70.4,1006.7,286.8,3.5,5.7,308.7,0.26,2.3,8.2,"10:31:54",1
"17/12/05","10:50",0.0,7.3,68.8,1006.4,273.9,3.4,7.5,315.0,0.29,2.0,8.3,"10:41:04",1
"17/12/05","11:00",0.0,7.7,69.0,1006.2,271.6,3.1,5.4,282.2,0.30,2.4,8.4,"10:51:52",1
"17/12/05","11:10",0.0,8.0,66.5,1006.4,279.8,2.7,5.2,236.3,0.33,2.2,8.5,"11:00:08",1
"17/12/05","11:20",0.0,7.8,63.6,1006.0,288.1,3.6,7.2,328.7,0.32,1.4,8.6,"11:16:40",1
"17/12/05","11:30",0.0,8.2,61.9,1006.0,288.7,3.9,8.0,336.5,0.34,1.4,8.6,"11:23:44",1
"17/12/05","11:40",0.0,8.2,59.5,1006.0,276.3,4.4,7.9,236.8,0.41,0.8,8.7,"11:33:44",1
"17/12/05","11:50",0.0,8.6,60.6,1006.0,265.0,3.7,9.0,334.5,0.40,1.5,9.0,"11:45:44",1
"17/12/05","12:00",0.0,8.9,58.5,1005.7,276.4,3.4,6.6,310.0,0.42,1.3,9.0,"11:57:36",1
"17/12/05","12:10",0.0,9.3,57.0,1005.5,272.5,3.0,6.3,302.9,0.42,1.3,9.1,"12:03:04",1
"17/12/05","12:20",0.0,9.1,55.5,1005.5,268.4,3.2,8.6,246.1,0.43,0.7,9.3,"12:16:32",1
"17/12/05","12:30",0.0,9.3,55.6,1005.7,276.6,3.4,5.8,229.9,0.44,0.9,9.4,"12:20:24",1
"17/12/05","12:40",0.0,9.0,56.9,1005.7,264.1,3.2,5.4,241.7,0.28,1.0,9.5,"12:36:08",1
"17/12/05","12:50",0.0,8.2,57.0,1006.0,273.3,3.4,6.0,245.1,0.14,0.2,9.5,"12:40:16",1
"17/12/05","13:00",0.0,8.2,56.0,1005.7,254.1,4.0,6.7,224.2,0.22,0.0,9.4,"12:51:44",1
"17/12/05","13:10",0.0,8.3,55.3,1005.7,266.7,3.1,7.0,330.7,0.22,-0.1,9.7,"13:08:48",1
"17/12/05","13:20",0.0,8.1,55.9,1005.7,253.1,3.9,8.0,227.0,0.10,-0.1,9.6,"13:10:34",1
"17/12/05","13:30",0.0,8.1,55.5,1005.5,262.5,3.0,7.5,236.4,0.11,-0.2,9.5,"13:20:58",1
"17/12/05","13:40",0.0,8.4,55.1,1005.5,259.1,3.2,6.7,229.0,0.13,0.0,9.5,"13:34:40",1
"17/12/05","13:50",0.0,8.4,53.6,1005.5,257.0,3.5,6.0,228.3,0.11,-0.4,9.4,"13:44:32",1
"17/12/05","14:00",0.0,8.3,53.3,1005.5,258.3,3.6,7.2,332.5,0.08,-0.6,9.5,"13:58:40",1
"17/12/05","14:10",0.0,8.2,53.7,1005.5,254.0,3.4,8.0,226.5,0.05,-0.6,9.4,"14:03:52",1
"17/12/05","14:20",0.0,8.5,54.5,1005.0,254.3,3.7,7.4,232.8,0.14,-0.1,9.5,"14:14:02",1
"17/12/05","14:30",0.0,9.0,51.2,1005.2,263.7,3.4,7.2,236.1,0.24,-0.5,9.6,"14:25:36",1
"17/12/05","14:40",0.0,8.9,50.3,1005.2,285.2,3.2,5.9,330.7,0.19,-0.8,9.5,"14:38:40",1
"17/12/05","14:50",0.0,8.9,51.2,1005.7,267.0,3.6,8.2,235.6,0.18,-0.6,9.4,"14:42:48",1
"17/12/05","15:00",0.0,8.7,52.2,1005.5,267.8,3.5,6.6,311.1,0.16,-0.5,9.4,"14:52:00",1
"17/12/05","15:10",0.0,8.5,52.4,1005.2,273.2,2.7,7.2,322.8,0.14,-0.6,9.3,"15:00:02",1
"17/12/05","15:20",0.0,8.6,52.3,1005.7,281.3,3.2,5.8,240.5,0.11,-0.6,9.5,"15:14:24",1
"17/12/05","15:30",0.0,8.2,53.5,1005.7,280.8,3.4,5.5,249.1,0.09,-0.6,9.5,"15:21:04",1
"17/12/05","15:40",0.0,8.0,54.6,1005.5,276.1,3.2,5.0,279.4,0.07,-0.5,9.5,"15:32:42",1
"17/12/05","15:50",0.0,7.9,54.5,1005.7,276.0,3.7,7.1,239.4,0.04,-0.7,9.3,"15:49:04",1
"17/12/05","16:00",0.0,7.8,54.9,1006.0,279.7,3.5,7.1,311.6,0.02,-0.7,9.4,"15:57:20",1
"17/12/05","16:10",0.0,7.4,55.5,1005.5,275.8,3.5,6.2,262.7,0.00,-0.9,9.2,"16:05:20",1
"17/12/05","16:20",0.0,7.1,56.6,1006.0,267.9,3.2,6.0,295.4,0.00,-0.9,9.0,"16:10:32",1
"17/12/05","16:30",0.2,6.9,57.9,1006.0,277.6,3.2,6.0,310.2,0.00,-0.8,9.0,"16:27:52",1
"17/12/05","16:40",0.0,6.7,59.1,1006.0,288.8,3.5,5.8,293.7,0.00,-0.7,8.9,"16:39:22",1
"17/12/05","16:50",0.0,6.5,59.6,1006.4,284.5,3.5,7.1,275.7,0.00,-0.7,8.9,"16:43:20",1
"17/12/05","17:00",0.0,6.4,60.5,1006.2,284.8,3.6,5.9,310.6,0.00,-0.6,8.9,"16:57:36",1
"17/12/05","17:10",0.0,6.1,61.6,1006.2,297.8,3.0,4.9,314.3,0.00,-0.7,8.7,"17:00:32",1
"17/12/05","17:20",0.0,6.0,59.6,1006.4,288.3,3.6,9.5,334.0,0.00,-1.2,8.4,"17:13:12",1
"17/12/05","17:30",0.0,5.9,58.1,1006.7,293.5,3.7,8.1,303.1,0.00,-1.7,8.5,"17:27:12",1
"17/12/05","17:40",0.0,5.7,57.9,1006.7,307.4,4.0,6.7,331.8,0.00,-1.9,8.5,"17:36:42",1
"17/12/05","17:50",0.0,5.6,57.9,1006.4,305.3,3.6,7.5,349.7,0.00,-2.0,8.4,"17:45:04",1
"17/12/05","18:00",0.0,5.8,55.5,1006.9,302.7,4.2,8.3,334.4,0.00,-2.4,8.4,"17:51:44",1
"17/12/05","18:10",0.0,5.7,54.6,1007.1,305.8,4.1,7.0,325.9,0.00,-2.7,8.2,"18:08:10",1
"17/12/05","18:20",0.0,5.6,54.0,1007.6,313.2,4.4,9.0,315.9,0.00,-2.9,8.3,"18:18:52",1
"17/12/05","18:30",0.0,5.5,53.6,1007.8,321.7,3.4,6.2,349.4,0.00,-3.1,8.2,"18:23:12",1
"17/12/05","18:40",0.0,5.3,54.5,1007.8,298.4,2.8,5.1,329.6,0.00,-3.1,7.9,"18:32:50",1
"17/12/05","18:50",0.0,4.9,55.6,1008.1,298.5,2.3,3.9,288.5,0.00,-3.2,8.1,"18:49:00",1
"17/12/05","19:00",0.0,4.8,55.8,1008.6,292.6,2.3,5.7,329.9,0.00,-3.2,8.2,"18:59:28",1
"17/12/05","19:10",0.0,4.6,56.6,1008.3,285.0,2.2,3.7,306.1,0.00,-3.2,8.0,"19:01:04",1
"17/12/05","19:20",0.0,4.4,57.9,1008.3,288.2,2.2,3.4,343.1,0.00,-3.1,7.7,"19:15:36",1
"17/12/05","19:30",0.0,4.3,58.4,1008.6,289.8,2.1,4.0,306.8,0.00,-3.1,7.7,"19:20:24",1
"17/12/05","19:40",0.0,4.3,59.0,1008.6,279.7,2.1,4.0,248.8,0.00,-3.0,7.7,"19:38:00",1
"17/12/05","19:50",0.0,4.3,59.6,1008.8,271.3,2.1,3.6,282.8,0.00,-2.8,7.6,"19:47:28",1
"17/12/05","20:00",0.0,4.2,60.9,1008.6,277.0,2.1,4.4,230.9,0.00,-2.6,7.5,"19:52:22",1
"17/12/05","20:10",0.0,4.0,61.6,1008.6,282.0,2.1,4.5,290.4,0.00,-2.7,7.5,"20:05:52",1
"17/12/05","20:20",0.0,3.7,62.3,1008.3,298.6,2.0,3.7,335.3,0.00,-2.8,7.3,"20:10:24",1
"17/12/05","20:30",0.0,3.4,63.2,1008.8,294.4,1.7,2.9,315.3,0.00,-2.9,7.6,"20:20:40",1
"17/12/05","20:40",0.0,3.3,63.5,1008.8,293.2,2.3,4.2,323.8,0.00,-2.9,7.2,"20:32:30",1
"17/12/05","20:50",0.0,3.2,63.2,1008.8,299.2,2.1,3.9,343.2,0.00,-3.1,7.4,"20:43:52",1
"17/12/05","21:00",0.0,3.0,63.9,1008.8,306.0,2.2,3.1,305.7,0.00,-3.1,7.2,"20:50:02",1
"17/12/05","21:10",0.0,3.2,63.4,1008.8,294.1,2.6,4.9,328.1,0.00,-3.0,7.1,"21:03:16",1
"17/12/05","21:20",0.0,3.1,63.4,1009.0,285.3,2.3,5.1,303.8,0.00,-3.1,7.1,"21:15:00",1
"17/12/05","21:30",0.0,2.9,64.2,1009.0,301.3,2.5,5.0,335.5,0.00,-3.2,7.1,"21:27:04",1
"17/12/05","21:40",0.0,2.8,65.4,1009.0,295.9,2.2,3.9,331.2,0.00,-3.0,7.0,"21:39:44",1
"17/12/05","21:50",0.0,2.8,65.5,1009.3,316.6,3.2,6.5,338.8,0.00,-3.0,7.1,"21:43:00",1
"17/12/05","22:00",0.0,2.8,65.7,1009.5,304.4,3.4,7.7,318.8,0.00,-2.9,7.1,"21:57:10",1
"17/12/05","22:10",0.0,2.6,66.3,1009.3,305.0,2.7,5.4,328.8,0.00,-3.0,7.1,"22:09:20",1
"17/12/05","22:20",0.0,2.4,67.1,1009.5,315.5,3.0,6.0,333.9,0.00,-3.0,6.9,"22:10:56",1
"17/12/05","22:30",0.0,2.3,67.3,1009.7,313.0,3.0,4.5,332.1,0.00,-3.1,6.8,"22:25:22",1
"17/12/05","22:40",0.0,2.1,68.2,1009.7,302.9,1.8,4.1,322.9,0.00,-3.1,7.0,"22:31:14",1
"17/12/05","22:50",0.0,2.0,69.0,1009.5,306.6,2.7,5.1,327.2,0.00,-3.0,6.9,"22:41:52",1
"17/12/05","23:00",0.0,1.8,69.8,1009.7,303.0,2.3,3.9,317.2,0.00,-3.1,6.7,"22:54:16",1
"17/12/05","23:10",0.0,1.7,70.4,1009.7,289.7,2.1,3.4,297.7,0.00,-3.1,6.6,"23:03:44",1
"17/12/05","23:20",0.0,1.5,71.3,1009.7,300.5,2.0,2.9,321.6,0.00,-3.1,6.6,"23:14:32",1
"17/12/05","23:30",0.0,1.7,71.6,1009.5,292.4,2.3,3.6,311.3,0.00,-2.8,6.6,"23:27:20",1
"17/12/05","23:40",0.0,1.8,70.6,1009.5,305.1,2.3,4.3,327.9,0.00,-2.9,6.6,"23:35:36",1
"17/12/05","23:50",0.0,1.8,71.3,1010.0,295.3,2.3,3.3,306.3,0.00,-2.8,6.3,"23:46:24",1
"17/12/05","24:00",0.0,1.8,70.6,1009.5,290.0,2.6,3.7,271.3,0.00,-2.9,6.4,"23:50:08",1
